This is the latest recevied weather packets stored in our database for station/object E22ZMG-1. If no packets are shown the sender has not sent any weather packets the latest 10 day(s).
| Time | Temp. | Humidity | Pressure | Rain* | Wind** | Luminosity | Snow |
|---|---|---|---|---|---|---|---|
| 1777896740 | 39.44° C | 32% | 972 hPa | - | - | 0 W/m² | - |
| 1777896115 | 39.44° C | 32% | 972 hPa | - | - | 0 W/m² | - |
| 1777895490 | 40° C | 32% | 972 hPa | - | - | 0 W/m² | - |
| 1777894862 | 38.89° C | 33% | 972 hPa | - | - | 0 W/m² | - |
| 1777894238 | 40° C | 31% | 971 hPa | - | - | 0 W/m² | - |
| 1777893613 | 39.44° C | 32% | 971 hPa | - | - | 0 W/m² | - |
| 1777892989 | 38.89° C | 32% | 971 hPa | - | - | 0 W/m² | - |
| 1777892362 | 41.67° C | 27% | 971 hPa | - | - | 0 W/m² | - |
| 1777891737 | 41.67° C | 27% | 970 hPa | - | - | 0 W/m² | - |
| 1777891110 | 41.67° C | 27% | 970 hPa | - | - | 0 W/m² | - |
| 1777890485 | 41.67° C | 26% | 970 hPa | - | - | 0 W/m² | - |
| 1777889859 | 42.22° C | 25% | 970 hPa | - | - | 0 W/m² | - |
| 1777889233 | 42.22° C | 25% | 970 hPa | - | - | 0 W/m² | - |
| 1777888607 | 42.22° C | 26% | 970 hPa | - | - | 0 W/m² | - |
| 1777887983 | 42.22° C | 25% | 970 hPa | - | - | 0 W/m² | - |
| 1777887357 | 42.22° C | 26% | 970 hPa | - | - | 0 W/m² | - |
| 1777886732 | 42.78° C | 23% | 971 hPa | - | - | 0 W/m² | - |
| 1777886108 | 43.33° C | 23% | 971 hPa | - | - | 0 W/m² | - |
| 1777885483 | 44.44° C | 22% | 971 hPa | - | - | 0 W/m² | - |
| 1777884857 | 43.89° C | 22% | 971 hPa | - | - | 0 W/m² | - |
| 1777884232 | 44.44° C | 22% | 971 hPa | - | - | 0 W/m² | - |
| 1777883606 | 43.33° C | 23% | 971 hPa | - | - | 0 W/m² | - |
| 1777882980 | 43.89° C | 22% | 971 hPa | - | - | 0 W/m² | - |
| 1777882353 | 43.89° C | 22% | 972 hPa | - | - | 0 W/m² | - |
| 1777881728 | 43.89° C | 21% | 972 hPa | - | - | 0 W/m² | - |
* Rain since midnight (hover to see other rain measurements)
** Current wind speed in m/s (hover to see current wind gust speed)